TimeEST,TemperatureF,Dew PointF,Humidity,Sea Level PressureIn,VisibilityMPH,Wind Direction,Wind SpeedMPH,Gust SpeedMPH,PrecipitationIn,Events,Conditions,WindDirDegrees,DateUTC
12:14 AM,45.0,45.1,100,29.27,7.0,South,10.4,19.6,0.01,Rain,Light Rain,180,2014-01-06 05:14:00
12:34 AM,39.6,39.7,100,29.33,5.0,West,18.4,26.5,0.05,Rain,Light Rain,270,2014-01-06 05:34:00
12:55 AM,36.9,37.2,100,29.32,10.0,West,10.4,-,0.07,Rain,Rain,270,2014-01-06 05:55:00
1:15 AM,36.1,36.3,100,29.31,10.0,WSW,11.5,-,N/A,,Drizzle,240,2014-01-06 06:15:00
1:34 AM,34.2,34.3,100,29.36,10.0,West,20.7,26.5,N/A,Rain,Rain,280,2014-01-06 06:34:00
1:54 AM,31.5,31.6,100,29.39,2.0,West,23.0,29.9,N/A,Snow,Light Snow,280,2014-01-06 06:54:00
2:15 AM,30.6,30.6,100,29.44,2.5,West,23.0,32.2,N/A,Snow,Light Snow,280,2014-01-06 07:15:00
2:34 AM,29.3,29.3,100,29.45,5.0,West,27.6,35.7,N/A,Snow,Light Snow,280,2014-01-06 07:34:00
2:54 AM,26.6,26.6,100,29.51,7.0,West,29.9,40.3,N/A,,Overcast,280,2014-01-06 07:54:00
3:14 AM,25.3,25.3,100,29.51,10.0,West,25.3,31.1,N/A,,Overcast,280,2014-01-06 08:14:00
3:34 AM,24.8,24.8,100,29.55,10.0,West,21.9,31.1,N/A,,Overcast,280,2014-01-06 08:34:00
3:55 AM,23.9,23.9,100,29.56,7.0,WNW,21.9,31.1,N/A,,Overcast,290,2014-01-06 08:55:00
4:14 AM,23.0,22.3,97,29.59,4.0,West,20.7,28.8,N/A,Snow,Light Snow,280,2014-01-06 09:14:00
4:34 AM,22.5,21.0,94,29.60,3.0,West,26.5,32.2,N/A,Snow,Light Snow,270,2014-01-06 09:34:00
4:54 AM,21.9,20.3,93,29.63,3.0,WNW,17.3,26.5,N/A,Snow,Light Snow,290,2014-01-06 09:54:00
5:15 AM,21.2,20.1,96,29.66,2.5,West,17.3,24.2,N/A,Snow,Light Snow,280,2014-01-06 10:15:00
5:34 AM,20.3,18.3,92,29.67,1.8,West,16.1,27.6,N/A,Snow,Light Snow,270,2014-01-06 10:34:00
5:54 AM,19.8,16.5,87,29.69,1.2,West,17.3,23.0,N/A,Snow,Light Snow,270,2014-01-06 10:54:00
6:14 AM,19.2,14.9,83,29.71,2.0,West,18.4,31.1,N/A,Snow,Light Snow,280,2014-01-06 11:14:00
6:34 AM,18.9,15.3,86,29.72,1.5,West,13.8,21.9,N/A,Snow,Light Snow,270,2014-01-06 11:34:00
6:55 AM,17.8,14.0,85,29.73,2.0,West,15.0,20.7,N/A,Snow,Light Snow,260,2014-01-06 11:55:00
7:14 AM,17.4,13.1,83,29.74,4.0,West,12.7,24.2,N/A,Snow,Light Snow,260,2014-01-06 12:14:00
7:34 AM,17.1,12.4,82,29.75,5.0,West,10.4,16.1,N/A,Snow,Light Snow,260,2014-01-06 12:34:00
7:55 AM,16.9,12.2,82,29.77,5.0,WSW,13.8,23.0,N/A,Snow,Light Snow,250,2014-01-06 12:55:00
8:15 AM,16.3,11.3,81,29.78,4.0,West,13.8,26.5,N/A,Snow,Light Snow,270,2014-01-06 13:15:00
8:34 AM,16.5,12.0,82,29.78,2.5,West,11.5,17.3,N/A,Snow,Light Snow,260,2014-01-06 13:34:00
8:54 AM,16.5,12.0,82,29.79,2.5,West,12.7,18.4,N/A,Snow,Light Snow,270,2014-01-06 13:54:00
9:14 AM,15.8,10.6,80,29.80,2.5,West,16.1,25.3,N/A,Snow,Light Snow,260,2014-01-06 14:14:00
9:34 AM,14.0,9.0,80,29.81,0.5,WSW,17.3,32.2,N/A,Snow,Light Snow,250,2014-01-06 14:34:00
9:55 AM,12.7,7.7,80,29.82,1.2,West,17.3,23.0,N/A,Snow,Light Snow,260,2014-01-06 14:55:00
10:14 AM,10.6,4.3,76,29.83,2.5,West,19.6,26.5,N/A,Snow,Light Snow,270,2014-01-06 15:14:00
10:34 AM,9.0,2.3,74,29.84,2.5,WSW,15.0,27.6,N/A,Snow,Light Snow,250,2014-01-06 15:34:00
10:54 AM,8.4,2.3,76,29.84,2.5,West,16.1,20.7,N/A,Snow,Light Snow,260,2014-01-06 15:54:00
11:14 AM,6.6,0.3,75,29.85,2.0,WSW,13.8,25.3,N/A,,Haze,250,2014-01-06 16:14:00
11:34 AM,5.2,-2.0,72,29.84,1.5,West,18.4,29.9,N/A,,Haze,260,2014-01-06 16:34:00
11:55 AM,5.7,-1.1,73,29.84,3.0,WSW,19.6,25.3,N/A,,Haze,250,2014-01-06 16:55:00
12:14 PM,5.0,-2.0,73,29.84,3.0,WSW,13.8,24.2,N/A,,Haze,250,2014-01-06 17:14:00
12:34 PM,4.8,-2.6,72,29.84,2.0,WSW,16.1,27.6,N/A,,Haze,240,2014-01-06 17:34:00
12:54 PM,3.7,-4.5,69,29.85,4.0,West,20.7,29.9,N/A,,Haze,260,2014-01-06 17:54:00
1:15 PM,3.4,-6.2,65,29.85,10.0,West,23.0,28.8,N/A,,Mostly Cloudy,270,2014-01-06 18:15:00
1:34 PM,2.3,-8.3,61,29.86,7.0,WSW,23.0,28.8,N/A,,Overcast,250,2014-01-06 18:34:00
1:54 PM,1.4,-9.8,60,29.86,5.0,West,19.6,28.8,N/A,,Haze,260,2014-01-06 18:54:00
2:14 PM,-0.4,-10.7,62,29.87,4.0,WSW,19.6,32.2,N/A,,Haze,250,2014-01-06 19:14:00
2:34 PM,-0.6,-10.3,64,29.87,5.0,West,21.9,29.9,N/A,,Haze,260,2014-01-06 19:34:00
2:54 PM,-0.9,-11.4,61,29.89,10.0,West,24.2,27.6,N/A,,Overcast,260,2014-01-06 19:54:00
3:14 PM,-1.5,-12.3,60,29.90,10.0,West,18.4,29.9,N/A,,Overcast,260,2014-01-06 20:14:00
3:34 PM,-1.7,-12.6,60,29.92,10.0,WSW,19.6,27.6,N/A,,Overcast,250,2014-01-06 20:34:00
3:54 PM,-2.2,-13.4,59,29.93,10.0,West,19.6,28.8,N/A,,Overcast,260,2014-01-06 20:54:00
4:14 PM,-2.7,-14.6,57,29.94,10.0,WSW,19.6,31.1,N/A,,Mostly Cloudy,250,2014-01-06 21:14:00
4:34 PM,-3.1,-15.0,57,29.95,10.0,WSW,12.7,25.3,N/A,,Scattered Clouds,250,2014-01-06 21:34:00
4:54 PM,-4.2,-15.5,58,29.96,10.0,WSW,15.0,25.3,N/A,,Clear,250,2014-01-06 21:54:00
5:15 PM,-5.1,-15.9,60,29.97,10.0,WSW,16.1,25.3,N/A,,Clear,250,2014-01-06 22:15:00
5:34 PM,-5.8,-15.9,62,29.98,10.0,WSW,19.6,31.1,N/A,,Scattered Clouds,240,2014-01-06 22:34:00
5:55 PM,-6.3,-15.9,63,29.99,10.0,WSW,20.7,26.5,N/A,,Mostly Cloudy,240,2014-01-06 22:55:00
6:14 PM,-6.9,-16.4,63,30.00,10.0,WSW,16.1,26.5,N/A,,Overcast,250,2014-01-06 23:14:00
6:34 PM,-7.6,-17.5,62,30.00,10.0,WSW,18.4,32.2,N/A,,Overcast,250,2014-01-06 23:34:00
6:54 PM,-8.0,-17.9,62,30.02,10.0,WSW,18.4,29.9,N/A,,Mostly Cloudy,250,2014-01-06 23:54:00
7:14 PM,-8.3,-18.2,62,30.03,10.0,WSW,21.9,32.2,N/A,,Scattered Clouds,250,2014-01-07 00:14:00
7:34 PM,-8.5,-17.5,65,30.04,10.0,WSW,18.4,25.3,N/A,,Mostly Cloudy,250,2014-01-07 00:34:00
7:54 PM,-9.4,-18.8,64,30.06,10.0,WSW,17.3,35.7,N/A,,Mostly Cloudy,250,2014-01-07 00:54:00
8:14 PM,-9.6,-18.8,64,30.07,10.0,WSW,19.6,28.8,N/A,,Mostly Cloudy,250,2014-01-07 01:14:00
8:34 PM,-9.9,-18.9,65,30.07,10.0,WSW,15.0,26.5,N/A,,Overcast,250,2014-01-07 01:34:00
8:55 PM,-10.3,-18.8,66,30.08,7.0,WSW,13.8,23.0,N/A,,Overcast,250,2014-01-07 01:55:00
9:14 PM,-10.5,-19.5,65,30.09,7.0,WSW,15.0,32.2,N/A,,Overcast,250,2014-01-07 02:14:00
9:34 PM,-10.8,-18.8,68,30.10,4.0,WSW,13.8,24.2,N/A,,Haze,240,2014-01-07 02:34:00
9:55 PM,-11.2,-19.3,67,30.10,4.0,West,16.1,26.5,N/A,,Haze,260,2014-01-07 02:55:00
10:14 PM,-11.4,-19.8,66,30.09,3.0,WSW,23.0,32.2,N/A,,Haze,250,2014-01-07 03:14:00
10:34 PM,-11.7,-21.1,63,30.10,10.0,WSW,18.4,29.9,N/A,,Mostly Cloudy,250,2014-01-07 03:34:00
10:55 PM,-11.7,-21.1,63,30.10,7.0,West,18.4,27.6,N/A,,Overcast,260,2014-01-07 03:55:00
11:14 PM,-11.9,-21.3,63,30.10,10.0,WSW,19.6,28.8,N/A,,Scattered Clouds,250,2014-01-07 04:14:00
11:34 PM,-11.9,-20.7,65,30.10,10.0,WSW,15.0,27.6,N/A,,Mostly Cloudy,250,2014-01-07 04:34:00
11:54 PM,-11.7,-20.4,66,30.11,7.0,WSW,16.1,28.8,N/A,,Overcast,250,2014-01-07 04:54:00